K4GZX-11 Weather Reports


Display with metric or nautical units.
time (UTC)temp
F
wind
direction
speed
MPH
gust
MPH
rain 1hr
in
rain 24hr
in
rain mn
in
humidity
%
barometer
mb
20260502163453 63 172 0.0 0.0 0.00 0.01 0.01 68 1013.0
20260502162953 63 172 0.0 0.0 0.00 0.01 0.01 69 1013.1
20260502162452 63 172 0.0 0.0 0.00 0.01 0.01 68 1013.0
20260502161953 62 172 0.0 0.0 0.00 0.01 0.01 68 1013.0
20260502161452 62 172 0.0 0.0 0.00 0.01 0.01 69 1013.0
20260502160952 62 172 0.0 0.0 0.00 0.01 0.01 69 1013.1
20260502160453 62 172 0.0 0.0 0.00 0.01 0.01 69 1013.0
20260502151953 60 172 0.0 0.0 0.00 0.01 0.01 78 1013.2
20260502151452 60 172 0.0 0.0 0.00 0.01 0.01 80 1013.2
20260502150952 60 172 0.0 0.0 0.00 0.01 0.01 81 1013.1
20260502150453 60 172 0.0 0.0 0.00 0.01 0.01 83 1013.0
20260502130516 57 172 0.0 0.0 0.00 0.01 0.01 87 1012.5
20260502123452 56 172 0.0 0.0 0.00 0.01 0.01 87 1012.6
20260502122954 56 172 0.0 0.0 0.00 0.01 0.01 87 1012.2
20260502122502 56 172 0.0 0.0 0.00 0.01 0.01 87 1012.0
20260502122009 56 172 0.0 0.0 0.00 0.01 0.01 86 1011.6
20260502121505 56 172 0.0 0.0 0.00 0.01 0.01 86 1011.7
20260502120952 56 172 0.0 0.0 0.00 0.01 0.01 86 1012.0
20260502120452 56 172 0.0 0.0 0.00 0.01 0.01 86 1012.1
20260502115452 56 172 0.0 0.0 0.00 0.01 0.01 86 1012.4
20260502114952 56 172 0.0 0.0 0.00 0.01 0.01 86 1012.7
20260502114458 0 0.0 0.0 0.00 0.01 0.01 1012.7
20260502114006 0 0.0 0.0 0.00 0.01 0.01 1012.8
20260502113513 0 0.0 0.0 0.00 0.01 0.01 1012.7
20260502113021 0 0.0 0.0 0.00 0.01 0.01 1012.6
20260502112504 0 0.0 0.0 0.00 0.01 0.01 1012.5
20260502111957 0 0.0 0.0 0.00 0.01 0.01 1012.6
20260502111505 56 0.0 0.0 0.00 0.01 0.01 1012.5
20260502110952 56 172 0.0 0.0 0.00 0.01 0.01 86 1012.1
20260502110452 56 172 0.0 0.0 0.00 0.01 0.01 86 1011.7
20260502105952 56 172 0.0 0.0 0.00 0.01 0.01 86 1011.5
20260502105452 56 172 0.0 0.0 0.00 0.01 0.01 86 1011.4
20260502104957 56 172 0.0 0.0 0.00 0.01 0.01 86 1011.4
20260502104504 56 172 0.0 0.0 0.00 0.01 0.01 86 1011.2
20260502103952 56 172 0.0 0.0 0.00 0.01 0.01 85 1010.8
20260502103452 56 172 0.0 0.0 0.00 0.01 0.01 85 1011.2
20260502102952 56 172 0.0 0.0 0.00 0.01 0.01 85 1011.2
20260502102452 56 172 0.0 0.0 0.00 0.01 0.01 85 1011.3
20260502101952 56 172 0.0 0.0 0.00 0.01 0.01 85 1011.0
20260502101452 56 172 0.0 0.0 0.00 0.01 0.01 85 1010.9
20260502100952 56 172 0.0 0.0 0.00 0.01 0.01 85 1010.9
20260502100452 56 172 0.0 0.0 0.00 0.01 0.01 85 1010.9
20260502091452 57 172 0.0 0.0 0.01 0.01 0.01 85 1011.3
20260502090952 57 172 0.0 0.0 0.01 0.01 0.01 84 1011.3
20260502090452 57 172 0.0 0.0 0.01 0.01 0.01 84 1011.4
20260502071452 57 172 0.0 0.0 0.00 0.00 0.00 83 1012.1
20260502070957 57 172 0.0 0.0 0.00 0.00 0.00 83 1012.0
20260502070504 57 172 0.0 0.0 0.00 0.00 0.00 83 1011.8
20260502065952 57 172 0.0 0.0 0.00 0.00 0.00 83 1011.9
20260502065452 57 172 0.0 0.0 0.00 0.00 0.00 83 1011.8
20260502064952 57 172 0.0 0.0 0.00 0.00 0.00 83 1011.7
20260502064452 57 172 0.0 0.0 0.00 0.00 0.00 83 1011.7
20260502063957 57 172 0.0 0.0 0.00 0.00 0.00 83 1011.8
20260502063504 58 172 0.0 0.0 0.00 0.00 0.00 83 1011.6
20260502062952 58 172 0.0 0.0 0.00 0.00 0.00 83 1011.7
20260502062452 58 172 0.0 0.0 0.00 0.00 0.00 82 1011.8
20260502061952 58 172 0.0 0.0 0.00 0.00 0.00 82 1011.9
20260502061452 58 172 0.0 0.0 0.00 0.00 0.00 82 1011.8
20260502060957 58 172 0.0 0.0 0.00 0.00 0.00 82 1011.9
20260502060504 58 172 0.0 0.0 0.00 0.00 0.00 82 1011.9
20260502055952 58 172 0.0 0.0 0.00 0.00 0.00 82 1011.8
20260502055452 58 172 0.0 0.0 0.00 0.00 0.00 82 1011.7
20260502054958 58 172 0.0 0.0 0.00 0.00 0.00 82 1011.9
20260502054505 58 172 0.0 0.0 0.00 0.00 0.00 82 1011.9
20260502053952 58 172 0.0 0.0 0.00 0.00 0.00 82 1012.0
20260502053452 58 172 0.0 0.0 0.00 0.00 0.00 82 1012.1
20260502052952 58 172 0.0 0.0 0.00 0.00 0.00 82 1012.1
20260502052452 58 172 0.0 0.0 0.00 0.00 0.00 82 1012.1
20260502051952 58 172 0.0 0.0 0.00 0.00 0.00 82 1012.2
20260502051452 58 172 0.0 0.0 0.00 0.00 0.00 82 1012.3
20260502050952 58 172 0.0 0.0 0.00 0.00 0.00 82 1012.3
20260502050452 58 172 0.0 0.0 0.00 0.00 0.00 82 1012.2
20260502045853 58 172 0.0 0.0 0.00 0.00 0.00 81 1012.3
20260502045353 58 172 0.0 0.0 0.00 0.00 0.00 81 1012.5
20260502044853 58 172 0.0 0.0 0.00 0.00 0.00 81 1012.4
20260502044353 59 172 0.0 0.0 0.00 0.00 0.00 81 1012.6
20260502043853 59 172 0.0 0.0 0.00 0.00 0.00 81 1012.7
20260502043353 59 172 0.0 0.0 0.00 0.00 0.00 80 1012.7
20260502042853 59 172 0.0 0.0 0.00 0.00 0.00 80 1012.8
20260502042355 59 172 0.0 0.0 0.00 0.00 0.00 80 1012.8
20260502041902 59 172 0.0 0.0 0.00 0.00 0.00 80 1012.8
20260502041410 59 172 0.0 0.0 0.00 0.00 0.00 79 1012.8
20260502040905 59 172 0.0 0.0 0.00 0.00 0.00 80 1012.8
20260502040012 59 172 0.0 0.0 0.00 0.00 0.00 80 1012.6
20260502035507 59 172 0.0 0.0 0.00 0.00 0.00 79 1012.7
20260502035015 59 172 0.0 0.0 0.00 0.00 0.00 79 1012.7
20260502034522 59 172 0.0 0.0 0.00 0.00 0.00 78 1012.8
20260502034018 59 172 0.0 0.0 0.00 0.00 0.00 78 1012.9
20260502033513 59 172 0.0 0.0 0.00 0.00 0.00 78 1012.9
20260502033021 59 172 0.0 0.0 0.00 0.00 0.00 78 1013.0
20260502032517 59 172 0.0 0.0 0.00 0.00 0.00 78 1013.0
20260502031952 60 172 0.0 0.0 0.00 0.00 0.00 78 1013.1
20260502031452 60 172 0.0 0.0 0.00 0.00 0.00 78 1013.3
20260502030952 60 172 0.0 0.0 0.00 0.00 0.00 77 1013.3
20260502030452 60 172 0.0 0.0 0.00 0.00 0.00 77 1013.2
20260502025957 60 172 0.0 0.0 0.00 0.00 0.00 77 1013.2
20260502025505 60 172 0.0 0.0 0.00 0.00 0.00 77 1013.2
20260502024953 60 172 0.0 0.0 0.00 0.00 0.00 76 1013.2
20260502024453 60 172 0.0 0.0 0.00 0.00 0.00 76 1013.1
20260502023952 60 172 0.0 0.0 0.00 0.00 0.00 76 1013.1
20260502023453 60 172 0.0 0.0 0.00 0.00 0.00 76 1013.0
20260502022953 60 172 0.0 0.0 0.00 0.00 0.00 76 1013.0
20260502022452 60 172 0.0 0.0 0.00 0.00 0.00 75 1013.0
20260502021952 60 172 0.0 0.0 0.00 0.00 0.00 75 1012.9
20260502021452 61 172 0.0 0.0 0.00 0.00 0.00 75 1013.0
20260502020952 61 172 0.0 0.0 0.00 0.00 0.00 75 1013.1
20260502020453 61 172 0.0 0.0 0.00 0.00 0.00 74 1013.1
20260502015952 61 172 0.0 0.0 0.00 0.00 0.00 74 1013.0
20260502015457 61 172 0.0 0.0 0.00 0.00 0.00 74 1012.9
20260502015005 61 172 0.0 0.0 0.00 0.00 0.00 74 1012.8
20260502014457 61 172 0.0 0.0 0.00 0.00 0.00 74 1012.7
20260502014004 61 172 0.0 0.0 0.00 0.00 0.00 73 1012.6
20260502013452 62 172 0.0 0.0 0.00 0.00 0.00 73 1012.7
20260502012953 62 172 0.0 0.0 0.00 0.00 0.00 72 1012.7
20260502012452 62 172 0.0 0.0 0.00 0.00 0.00 71 1012.7
20260502011953 62 172 0.0 0.0 0.00 0.00 0.00 71 1012.8
20260502011457 62 172 0.0 0.0 0.00 0.00 0.00 72 1012.8
20260502011004 62 172 0.0 0.0 0.00 0.00 0.00 71 1012.8
20260502010452 62 172 0.0 0.0 0.00 0.00 0.00 70 1012.8
20260502005952 63 172 0.0 0.0 0.00 0.00 0.00 70 1012.8
20260502005452 63 172 0.0 0.0 0.00 0.00 0.00 70 1012.8
20260502004952 63 172 0.0 0.0 0.00 0.00 0.00 69 1012.7
20260502004457 63 172 0.0 0.0 0.00 0.00 0.00 69 1012.7
20260502004005 63 172 0.0 0.0 0.00 0.00 0.00 69 1012.5
20260502003453 63 172 0.0 0.0 0.00 0.00 0.00 69 1012.4
20260502002952 64 172 0.0 0.0 0.00 0.00 0.00 68 1012.3
20260502002452 64 172 0.0 0.0 0.00 0.00 0.00 68 1012.1
20260502001952 64 172 0.0 0.0 0.00 0.00 0.00 68 1012.1
20260502001452 64 172 0.0 0.0 0.00 0.00 0.00 68 1012.1
20260502000952 64 172 0.0 0.0 0.00 0.00 0.00 67 1012.2
20260502000454 64 172 0.0 0.0 0.00 0.00 0.00 67 1012.2
20260501235952 64 172 0.0 0.0 0.00 0.00 0.00 67 1012.0
20260501235457 65 172 0.0 0.0 0.00 0.00 0.00 68 1012.0
20260501235004 65 172 0.0 0.0 0.00 0.00 0.00 66 1011.9
20260501234452 65 172 0.0 0.0 0.00 0.00 0.00 66 1012.1
20260501233952 65 172 0.0 0.0 0.00 0.00 0.00 65 1012.0
20260501233452 65 172 0.0 0.0 0.00 0.00 0.00 65 1012.1
20260501232952 65 172 0.0 0.0 0.00 0.00 0.00 66 1012.0
20260501232452 65 172 0.0 0.0 0.00 0.00 0.00 65 1012.1
20260501231957 66 172 0.0 0.0 0.00 0.00 0.00 64 1012.0
20260501231504 66 172 0.0 0.0 0.00 0.00 0.00 62 1011.9
20260501230952 66 172 0.0 0.0 0.00 0.00 0.00 63 1011.7
20260501230452 66 172 0.0 0.0 0.00 0.00 0.00 63 1011.8
20260501225952 66 172 0.0 0.0 0.00 0.00 0.00 63 1011.7
20260501225452 66 172 0.0 0.0 0.00 0.00 0.00 62 1011.6
20260501224952 66 172 0.0 0.0 0.00 0.00 0.00 62 1011.6
20260501224452 66 172 0.0 0.0 0.00 0.00 0.00 62 1011.6
20260501223952 66 172 0.0 0.0 0.00 0.00 0.00 62 1011.6
20260501223452 66 172 0.0 0.0 0.00 0.00 0.00 62 1011.8
20260501222957 66 172 0.0 0.0 0.00 0.00 0.00 62 1011.9
20260501222504 66 172 0.0 0.0 0.00 0.00 0.00 63 1011.8
20260501221952 67 172 0.0 0.0 0.00 0.00 0.00 63 1011.9
20260501221452 67 172 0.0 0.0 0.00 0.00 0.00 62 1012.1
20260501220952 67 172 0.0 0.0 0.00 0.00 0.00 61 1012.2
20260501220452 67 172 0.0 0.0 0.00 0.00 0.00 59 1012.2
20260501215952 67 172 0.0 0.0 0.00 0.00 0.00 59 1012.2
20260501215452 67 172 0.0 0.0 0.00 0.00 0.00 59 1012.3
20260501214952 67 172 0.0 0.0 0.00 0.00 0.00 59 1012.3
20260501214452 67 172 0.0 0.0 0.00 0.00 0.00 58 1012.4
20260501213952 67 172 0.0 0.0 0.00 0.00 0.00 60 1012.3
20260501213452 67 172 0.0 0.0 0.00 0.00 0.00 58 1012.3
20260501212952 66 172 0.0 0.0 0.00 0.00 0.00 59 1012.5
20260501212452 67 172 0.0 0.0 0.00 0.00 0.00 59 1012.6
20260501211952 67 172 0.0 0.0 0.00 0.00 0.00 58 1012.6
20260501211452 67 172 0.0 0.0 0.00 0.00 0.00 57 1012.6
20260501210957 67 172 0.0 0.0 0.00 0.00 0.00 57 1012.7
20260501210505 67 172 0.0 0.0 0.00 0.00 0.00 57 1012.8
20260501205952 67 172 0.0 0.0 0.00 0.00 0.00 56 1012.7
20260501205452 67 172 0.0 0.0 0.00 0.00 0.00 58 1012.8
20260501204952 67 172 0.0 0.0 0.00 0.00 0.00 57 1012.9
20260501204452 67 172 0.0 0.0 0.00 0.00 0.00 57 1012.9
20260501203952 67 172 0.0 0.0 0.00 0.00 0.00 58 1013.0
20260501203452 67 172 0.0 0.0 0.00 0.00 0.00 58 1012.9
20260501202952 67 172 0.0 0.0 0.00 0.00 0.00 56 1012.8
20260501202452 67 172 0.0 0.0 0.00 0.00 0.00 56 1012.8
20260501201952 67 172 0.0 0.0 0.00 0.00 0.00 56 1012.9
20260501201452 67 172 0.0 0.0 0.00 0.00 0.00 57 1012.9
20260501200957 67 172 0.0 0.0 0.00 0.00 0.00 56 1012.9
20260501200504 67 172 0.0 0.0 0.00 0.00 0.00 57 1013.0
20260501195952 67 172 0.0 0.0 0.00 0.00 0.00 56 1013.1
20260501195452 67 172 0.0 0.0 0.00 0.00 0.00 57 1013.0
20260501194952 67 172 0.0 0.0 0.00 0.00 0.00 57 1013.1
20260501194452 67 172 0.0 0.0 0.00 0.00 0.00 57 1013.2
20260501193952 67 172 0.0 0.0 0.00 0.00 0.00 58 1013.2
20260501193452 67 172 0.0 0.0 0.00 0.00 0.00 57 1013.3
20260501192952 67 172 0.0 0.0 0.00 0.00 0.00 57 1013.6
20260501192452 67 172 0.0 0.0 0.00 0.00 0.00 56 1013.5
20260501191952 67 172 0.0 0.0 0.00 0.00 0.00 55 1013.6
20260501191452 67 172 0.0 0.0 0.00 0.00 0.00 55 1013.7
20260501190952 66 172 0.0 0.0 0.00 0.00 0.00 55 1013.9
20260501190452 66 172 0.0 0.0 0.00 0.00 0.00 55 1014.0
20260501185952 66 172 0.0 0.0 0.00 0.00 0.00 57 1014.0
20260501185452 66 172 0.0 0.0 0.00 0.00 0.00 55 1014.0
20260501184952 66 172 0.0 0.0 0.00 0.00 0.00 56 1014.0
20260501184457 66 172 0.0 0.0 0.00 0.00 0.00 56 1014.0
20260501184004 66 172 0.0 0.0 0.00 0.00 0.00 55 1014.0
20260501183452 66 172 0.0 0.0 0.00 0.00 0.00 57 1013.9
20260501182955 66 172 0.0 0.0 0.00 0.00 0.00 57 1014.0
20260501182503 66 172 0.0 0.0 0.00 0.00 0.00 58 1014.0
20260501182010 66 172 0.0 0.0 0.00 0.00 0.00 57 1014.1
20260501181518 66 172 0.0 0.0 0.00 0.00 0.00 56 1014.1
20260501181025 66 172 0.0 0.0 0.00 0.00 0.00 56 1014.2
20260501180509 66 172 0.0 0.0 0.00 0.00 0.00 56 1014.2
20260501180016 66 172 0.0 0.0 0.00 0.00 0.00 56 1014.4
20260501175452 66 172 0.0 0.0 0.00 0.00 0.00 57 1014.5
20260501174952 66 172 0.0 0.0 0.00 0.00 0.00 58 1014.5
20260501174457 65 172 0.0 0.0 0.00 0.00 0.00 55 1014.5
20260501174004 65 172 0.0 0.0 0.00 0.00 0.00 57 1014.5
20260501173452 65 172 0.0 0.0 0.00 0.00 0.00 56 1014.5
20260501172952 64 172 0.0 0.0 0.00 0.00 0.00 56 1014.6
20260501172452 64 172 0.0 0.0 0.00 0.00 0.00 58 1014.6
20260501171954 64 172 0.0 0.0 0.00 0.00 0.00 57 1014.7
20260501171501 63 172 0.0 0.0 0.00 0.00 0.00 59 1014.7
20260501171009 63 172 0.0 0.0 0.00 0.00 0.00 60 1014.7
20260501170516 63 172 0.0 0.0 0.00 0.00 0.00 57 1014.8
20260501165956 62 172 0.0 0.0 0.00 0.00 0.00 58 1014.8
20260501165505 62 172 0.0 0.0 0.00 0.00 0.00 56 1014.7
20260501164952 62 172 0.0 0.0 0.00 0.00 0.00 59 1014.8
20260501164452 61 172 0.0 0.0 0.00 0.00 0.00 57 1014.7
20260501163953 61 172 0.0 0.0 0.00 0.00 0.00 59 1014.7